Time,TemperatureF,DewpointF,PressureIn,WindDirection,WindDirectionDegrees,WindSpeedMPH,WindSpeedGustMPH,Humidity,HourlyPrecipIn,Conditions,Clouds,dailyrainin,SoftwareType,DateUTC
2013-02-26 00:01:00,31.0,29.0,-100.00,West,263,0.0,0.0,91,-99.99,,,-99.99,,2013-02-26 05:01:00,
2013-02-26 00:12:00,32.0,29.0,-100.00,SSW,209,0.0,2.0,90,-99.99,,,-99.99,,2013-02-26 05:12:00,
2013-02-26 00:22:00,32.0,29.0,-100.00,South,188,0.0,0.0,90,-99.99,,,-99.99,,2013-02-26 05:22:00,
2013-02-26 00:32:00,32.0,29.0,-100.00,South,188,0.0,0.0,90,-99.99,,,-99.99,,2013-02-26 05:32:00,
2013-02-26 00:43:00,32.0,29.0,-100.00,ENE,64,0.0,2.0,90,-99.99,,,-99.99,,2013-02-26 05:43:00,
2013-02-26 00:52:00,31.0,29.0,-100.00,SSE,166,0.0,2.0,91,-99.99,,,-99.99,,2013-02-26 05:52:00,
2013-02-26 01:02:00,31.0,29.0,-100.00,ESE,106,0.0,2.0,92,-99.99,,,-99.99,,2013-02-26 06:02:00,
2013-02-26 01:11:00,31.0,29.0,-100.00,South,185,0.0,2.0,93,-99.99,,,-99.99,,2013-02-26 06:11:00,
2013-02-26 01:21:00,31.0,29.0,-100.00,South,185,0.0,2.0,93,-99.99,,,-99.99,,2013-02-26 06:21:00,
2013-02-26 01:32:00,31.0,29.0,-100.00,SSE,149,2.0,6.0,91,-99.99,,,-99.99,,2013-02-26 06:32:00,
2013-02-26 01:42:00,31.0,29.0,-100.00,SSE,149,2.0,6.0,91,-99.99,,,-99.99,,2013-02-26 06:42:00,
2013-02-26 01:52:00,31.0,27.0,-100.00,South,171,2.0,4.0,84,-99.99,,,-99.99,,2013-02-26 06:52:00,
2013-02-26 02:01:00,31.0,27.0,-100.00,South,182,2.0,4.0,84,-99.99,,,-99.99,,2013-02-26 07:01:00,
2013-02-26 02:11:00,31.0,27.0,-100.00,SSE,166,2.0,6.0,83,-99.99,,,-99.99,,2013-02-26 07:11:00,
2013-02-26 02:22:00,31.0,27.0,-100.00,NE,34,2.0,4.0,85,-99.99,,,-99.99,,2013-02-26 07:22:00,
2013-02-26 02:32:00,31.0,28.0,-100.00,SW,218,1.0,2.0,88,-99.99,,,-99.99,,2013-02-26 07:32:00,
2013-02-26 02:42:00,31.0,28.0,-100.00,SSE,156,0.0,2.0,89,-99.99,,,-99.99,,2013-02-26 07:42:00,
2013-02-26 02:52:00,31.0,28.0,-100.00,South,185,2.0,4.0,90,-99.99,,,-99.99,,2013-02-26 07:52:00,
2013-02-26 03:02:00,31.0,28.0,-100.00,South,185,2.0,4.0,90,-99.99,,,-99.99,,2013-02-26 08:02:00,
2013-02-26 03:11:00,31.0,28.0,-100.00,West,280,3.0,4.0,89,-99.99,,,-99.99,,2013-02-26 08:11:00,
2013-02-26 03:21:00,31.0,28.0,-100.00,SSE,154,2.0,4.0,88,-99.99,,,-99.99,,2013-02-26 08:21:00,
2013-02-26 03:32:00,30.0,28.0,-100.00,WSW,251,1.0,2.0,88,-99.99,,,-99.99,,2013-02-26 08:32:00,
2013-02-26 03:42:00,30.0,28.0,-100.00,WSW,251,1.0,2.0,88,-99.99,,,-99.99,,2013-02-26 08:42:00,
2013-02-26 03:52:00,31.0,27.0,-100.00,WSW,244,2.0,4.0,86,-99.99,,,-99.99,,2013-02-26 08:52:00,
2013-02-26 04:02:00,30.0,28.0,-100.00,South,187,3.0,4.0,90,-99.99,,,-99.99,,2013-02-26 09:02:00,
2013-02-26 04:11:00,30.0,28.0,-100.00,South,184,2.0,4.0,92,-99.99,,,-99.99,,2013-02-26 09:11:00,
2013-02-26 04:21:00,30.0,28.0,-100.00,SSE,168,2.0,4.0,92,-99.99,,,-99.99,,2013-02-26 09:21:00,
2013-02-26 04:32:00,29.0,27.0,-100.00,SSW,206,0.0,2.0,92,-99.99,,,-99.99,,2013-02-26 09:32:00,
2013-02-26 04:43:00,29.0,28.0,-100.00,North,1,1.0,4.0,93,-99.99,,,-99.99,,2013-02-26 09:43:00,
2013-02-26 04:51:00,29.0,28.0,-100.00,North,1,1.0,4.0,93,-99.99,,,-99.99,,2013-02-26 09:51:00,
2013-02-26 05:01:00,29.0,28.0,-100.00,SSW,192,1.0,2.0,95,-99.99,,,-99.99,,2013-02-26 10:01:00,
2013-02-26 05:11:00,29.0,28.0,-100.00,West,266,0.0,2.0,96,-99.99,,,-99.99,,2013-02-26 10:11:00,
2013-02-26 05:21:00,29.0,29.0,-100.00,SSW,198,0.0,2.0,96,-99.99,,,-99.99,,2013-02-26 10:21:00,
2013-02-26 05:32:00,29.0,28.0,-100.00,SW,224,2.0,2.0,95,-99.99,,,-99.99,,2013-02-26 10:32:00,
2013-02-26 05:42:00,29.0,28.0,-100.00,SW,220,1.0,2.0,95,-99.99,,,-99.99,,2013-02-26 10:42:00,
2013-02-26 05:52:00,29.0,28.0,-100.00,ESE,105,1.0,2.0,95,-99.99,,,-99.99,,2013-02-26 10:52:00,
2013-02-26 06:01:00,29.0,28.0,-100.00,ESE,119,0.0,2.0,95,-99.99,,,-99.99,,2013-02-26 11:01:00,
2013-02-26 06:12:00,29.0,28.0,-100.00,WNW,284,0.0,2.0,96,-99.99,,,-99.99,,2013-02-26 11:12:00,
2013-02-26 06:22:00,29.0,28.0,-100.00,ESE,114,1.0,2.0,96,-99.99,,,-99.99,,2013-02-26 11:22:00,
2013-02-26 06:32:00,29.0,28.0,-100.00,NE,41,0.0,2.0,96,-99.99,,,-99.99,,2013-02-26 11:32:00,
2013-02-26 06:42:00,29.0,28.0,-100.00,NE,39,1.0,4.0,96,-99.99,,,-99.99,,2013-02-26 11:42:00,
2013-02-26 06:52:00,29.0,28.0,-100.00,SSE,158,0.0,2.0,97,-99.99,,,-99.99,,2013-02-26 11:52:00,
2013-02-26 07:02:00,29.0,28.0,-100.00,NE,55,1.0,2.0,97,-99.99,,,-99.99,,2013-02-26 12:02:00,
2013-02-26 07:11:00,29.0,28.0,-100.00,East,83,0.0,2.0,98,-99.99,,,-99.99,,2013-02-26 12:11:00,
2013-02-26 07:22:00,29.0,28.0,-100.00,SE,126,0.0,2.0,98,-99.99,,,-99.99,,2013-02-26 12:22:00,
2013-02-26 07:32:00,29.0,28.0,-100.00,ESE,115,0.0,2.0,98,-99.99,,,-99.99,,2013-02-26 12:32:00,
2013-02-26 07:42:00,29.0,29.0,-100.00,SSE,166,1.0,2.0,98,-99.99,,,-99.99,,2013-02-26 12:42:00,
2013-02-26 07:52:00,29.0,29.0,-100.00,SW,231,0.0,2.0,98,-99.99,,,-99.99,,2013-02-26 12:52:00,
2013-02-26 08:02:00,29.0,29.0,-100.00,SSW,201,0.0,2.0,98,-99.99,,,-99.99,,2013-02-26 13:02:00,
2013-02-26 08:11:00,30.0,29.0,-100.00,SW,221,1.0,2.0,97,-99.99,,,-99.99,,2013-02-26 13:11:00,
2013-02-26 08:22:00,30.0,29.0,-100.00,WNW,297,0.0,2.0,96,-99.99,,,-99.99,,2013-02-26 13:22:00,
2013-02-26 08:32:00,30.0,29.0,-100.00,WNW,297,0.0,2.0,96,-99.99,,,-99.99,,2013-02-26 13:32:00,
2013-02-26 08:42:00,31.0,30.0,-100.00,SSW,206,0.0,2.0,95,-99.99,,,-99.99,,2013-02-26 13:42:00,
2013-02-26 08:51:00,31.0,29.0,-100.00,East,100,1.0,2.0,91,-99.99,,,-99.99,,2013-02-26 13:51:00,
2013-02-26 09:01:00,31.0,29.0,-100.00,East,86,1.0,2.0,91,-99.99,,,-99.99,,2013-02-26 14:01:00,
2013-02-26 09:11:00,32.0,29.0,-100.00,ESE,121,0.0,2.0,89,-99.99,,,-99.99,,2013-02-26 14:11:00,
2013-02-26 09:21:00,33.0,29.0,-100.00,ENE,78,0.0,0.0,87,-99.99,,,-99.99,,2013-02-26 14:21:00,
2013-02-26 09:32:00,33.0,29.0,-100.00,South,180,0.0,0.0,85,-99.99,,,-99.99,,2013-02-26 14:32:00,
2013-02-26 09:42:00,33.0,29.0,-100.00,SE,128,0.0,2.0,82,-99.99,,,-99.99,,2013-02-26 14:42:00,
2013-02-26 09:52:00,34.0,28.0,-100.00,ESE,110,1.0,2.0,78,-99.99,,,-99.99,,2013-02-26 14:52:00,
2013-02-26 10:02:00,34.0,28.0,-100.00,ESE,116,0.0,2.0,78,-99.99,,,-99.99,,2013-02-26 15:02:00,
2013-02-26 10:11:00,35.0,28.0,-100.00,SE,135,1.0,2.0,76,-99.99,,,-99.99,,2013-02-26 15:11:00,
2013-02-26 10:22:00,36.0,27.0,-100.00,ENE,63,0.0,2.0,70,-99.99,,,-99.99,,2013-02-26 15:22:00,
2013-02-26 10:32:00,37.0,28.0,-100.00,SE,125,0.0,2.0,70,-99.99,,,-99.99,,2013-02-26 15:32:00,
2013-02-26 10:42:00,36.0,28.0,-100.00,ESE,119,1.0,2.0,70,-99.99,,,-99.99,,2013-02-26 15:42:00,
2013-02-26 10:52:00,36.0,28.0,-100.00,SSW,208,1.0,2.0,71,-99.99,,,-99.99,,2013-02-26 15:52:00,
2013-02-26 11:02:00,38.0,28.0,-100.00,SW,230,1.0,2.0,66,-99.99,,,-99.99,,2013-02-26 16:02:00,
2013-02-26 11:11:00,36.0,26.0,-100.00,SSW,206,2.0,6.0,66,-99.99,,,-99.99,,2013-02-26 16:11:00,
2013-02-26 11:22:00,36.0,27.0,-100.00,NW,311,0.0,2.0,67,-99.99,,,-99.99,,2013-02-26 16:22:00,
2013-02-26 11:32:00,38.0,27.0,-100.00,SSW,210,1.0,6.0,63,-99.99,,,-99.99,,2013-02-26 16:32:00,
2013-02-26 11:42:00,38.0,26.0,-100.00,South,174,3.0,6.0,61,-99.99,,,-99.99,,2013-02-26 16:42:00,
2013-02-26 11:52:00,38.0,26.0,-100.00,South,174,3.0,6.0,61,-99.99,,,-99.99,,2013-02-26 16:52:00,
2013-02-26 12:01:00,37.0,25.0,-100.00,ESE,122,5.0,8.0,61,-99.99,,,-99.99,,2013-02-26 17:01:00,
2013-02-26 12:11:00,37.0,25.0,-100.00,ESE,122,5.0,8.0,61,-99.99,,,-99.99,,2013-02-26 17:11:00,
2013-02-26 12:21:00,37.0,25.0,-100.00,SSW,202,3.0,6.0,62,-99.99,,,-99.99,,2013-02-26 17:21:00,
2013-02-26 12:32:00,37.0,26.0,-100.00,SE,128,5.0,8.0,62,-99.99,,,-99.99,,2013-02-26 17:32:00,
2013-02-26 12:42:00,37.0,26.0,-100.00,South,170,6.0,11.0,62,-99.99,,,-99.99,,2013-02-26 17:42:00,
2013-02-26 12:52:00,37.0,26.0,-100.00,SE,146,3.0,8.0,63,-99.99,,,-99.99,,2013-02-26 17:52:00,
2013-02-26 13:02:00,38.0,26.0,-100.00,SSE,166,5.0,10.0,62,-99.99,,,-99.99,,2013-02-26 18:02:00,
2013-02-26 13:12:00,37.0,26.0,-100.00,SSE,155,5.0,10.0,62,-99.99,,,-99.99,,2013-02-26 18:12:00,
2013-02-26 13:21:00,37.0,26.0,-100.00,SSE,155,5.0,10.0,62,-99.99,,,-99.99,,2013-02-26 18:21:00,
2013-02-26 13:32:00,37.0,26.0,-100.00,SSE,153,4.0,8.0,63,-99.99,,,-99.99,,2013-02-26 18:32:00,
2013-02-26 13:42:00,38.0,26.0,-100.00,SE,145,2.0,8.0,63,-99.99,,,-99.99,,2013-02-26 18:42:00,
2013-02-26 13:52:00,38.0,27.0,-100.00,South,182,2.0,6.0,63,-99.99,,,-99.99,,2013-02-26 18:52:00,
2013-02-26 14:01:00,38.0,27.0,-100.00,South,182,2.0,6.0,63,-99.99,,,-99.99,,2013-02-26 19:01:00,
2013-02-26 14:11:00,38.0,27.0,-100.00,SSW,208,4.0,8.0,62,-99.99,,,-99.99,,2013-02-26 19:11:00,
2013-02-26 14:22:00,38.0,26.0,-100.00,SSW,199,5.0,8.0,61,-99.99,,,-99.99,,2013-02-26 19:22:00,
2013-02-26 14:32:00,38.0,26.0,-100.00,SSW,205,2.0,6.0,62,-99.99,,,-99.99,,2013-02-26 19:32:00,
2013-02-26 14:42:00,37.0,26.0,-100.00,SSE,148,5.0,8.0,63,-99.99,,,-99.99,,2013-02-26 19:42:00,
2013-02-26 14:50:00,37.0,28.0,-100.00,SSE,161,4.0,8.0,68,-99.99,,,-99.99,,2013-02-26 19:50:00,
2013-02-26 14:52:00,37.0,26.0,-100.00,SSE,165,4.0,8.0,64,-99.99,,,-99.99,,2013-02-26 19:52:00,
2013-02-26 15:01:00,37.0,27.0,-100.00,South,173,4.0,8.0,66,-99.99,,,-99.99,,2013-02-26 20:01:00,
2013-02-26 15:11:00,37.0,28.0,-100.00,SSE,161,4.0,8.0,68,-99.99,,,-99.99,,2013-02-26 20:11:00,
2013-02-26 15:22:00,37.0,28.0,-100.00,SSE,161,4.0,8.0,68,-99.99,,,-99.99,,2013-02-26 20:22:00,
2013-02-26 15:32:00,37.0,28.0,-100.00,SSE,161,4.0,8.0,68,-99.99,,,-99.99,,2013-02-26 20:32:00,
2013-02-26 15:41:00,37.0,28.0,-100.00,SSE,161,4.0,8.0,68,-99.99,,,-99.99,,2013-02-26 20:41:00,
2013-02-26 16:31:00,36.0,28.0,-100.00,SE,140,2.0,4.0,73,-99.99,,,-99.99,,2013-02-26 21:31:00,
2013-02-26 16:41:00,36.0,28.0,-100.00,SE,140,2.0,4.0,73,-99.99,,,-99.99,,2013-02-26 21:41:00,
2013-02-26 16:51:00,36.0,28.0,-100.00,SE,140,2.0,4.0,73,-99.99,,,-99.99,,2013-02-26 21:51:00,
2013-02-26 17:01:00,36.0,28.0,-100.00,SSE,148,2.0,4.0,74,-99.99,,,-99.99,,2013-02-26 22:01:00,
2013-02-26 17:11:00,36.0,29.0,-100.00,SSE,159,2.0,4.0,75,-99.99,,,-99.99,,2013-02-26 22:11:00,
2013-02-26 17:21:00,36.0,29.0,-100.00,SSE,150,3.0,6.0,75,-99.99,,,-99.99,,2013-02-26 22:21:00,
2013-02-26 17:32:00,35.0,29.0,-100.00,SE,144,1.0,2.0,76,-99.99,,,-99.99,,2013-02-26 22:32:00,
2013-02-26 17:42:00,35.0,29.0,-100.00,SE,144,1.0,2.0,76,-99.99,,,-99.99,,2013-02-26 22:42:00,
2013-02-26 17:51:00,35.0,29.0,-100.00,SSE,168,3.0,4.0,76,-99.99,,,-99.99,,2013-02-26 22:51:00,
2013-02-26 18:01:00,35.0,28.0,-100.00,SSE,153,2.0,6.0,75,-99.99,,,-99.99,,2013-02-26 23:01:00,
2013-02-26 18:11:00,35.0,28.0,-100.00,SSW,206,1.0,4.0,76,-99.99,,,-99.99,,2013-02-26 23:11:00,
2013-02-26 18:21:00,35.0,28.0,-100.00,SSE,167,4.0,8.0,75,-99.99,,,-99.99,,2013-02-26 23:21:00,
2013-02-26 18:32:00,35.0,28.0,-100.00,SSE,151,3.0,6.0,76,-99.99,,,-99.99,,2013-02-26 23:32:00,
2013-02-26 18:42:00,35.0,28.0,-100.00,South,176,3.0,6.0,75,-99.99,,,-99.99,,2013-02-26 23:42:00,
2013-02-26 18:52:00,35.0,28.0,-100.00,SSE,167,4.0,8.0,76,-99.99,,,-99.99,,2013-02-26 23:52:00,
2013-02-26 19:02:00,35.0,29.0,-100.00,SW,221,2.0,4.0,77,-99.99,,,-99.99,,2013-02-27 00:02:00,
2013-02-26 19:11:00,35.0,29.0,-100.00,SSW,210,1.0,4.0,77,-99.99,,,-99.99,,2013-02-27 00:11:00,
2013-02-26 19:22:00,35.0,29.0,-100.00,SE,146,2.0,4.0,77,-99.99,,,-99.99,,2013-02-27 00:22:00,
2013-02-26 19:32:00,35.0,29.0,-100.00,South,177,3.0,6.0,78,-99.99,,,-99.99,,2013-02-27 00:32:00,
2013-02-26 19:42:00,34.0,29.0,-100.00,South,176,2.0,4.0,79,-99.99,,,-99.99,,2013-02-27 00:42:00,
2013-02-26 19:51:00,34.0,29.0,-100.00,SSE,168,2.0,4.0,79,-99.99,,,-99.99,,2013-02-27 00:51:00,
2013-02-26 20:01:00,34.0,29.0,-100.00,SE,144,2.0,4.0,79,-99.99,,,-99.99,,2013-02-27 01:01:00,
2013-02-26 20:11:00,34.0,28.0,-100.00,South,176,4.0,6.0,78,-99.99,,,-99.99,,2013-02-27 01:11:00,
2013-02-26 20:22:00,34.0,28.0,-100.00,South,176,4.0,6.0,78,-99.99,,,-99.99,,2013-02-27 01:22:00,
2013-02-26 20:32:00,34.0,28.0,-100.00,SSW,192,3.0,4.0,78,-99.99,,,-99.99,,2013-02-27 01:32:00,
2013-02-26 20:42:00,34.0,28.0,-100.00,ESE,110,2.0,6.0,78,-99.99,,,-99.99,,2013-02-27 01:42:00,
2013-02-26 20:51:00,34.0,28.0,-100.00,SE,132,3.0,4.0,78,-99.99,,,-99.99,,2013-02-27 01:51:00,
2013-02-26 21:01:00,34.0,28.0,-100.00,SE,128,3.0,6.0,78,-99.99,,,-99.99,,2013-02-27 02:01:00,
2013-02-26 21:16:00,34.0,28.0,-100.00,WSW,254,2.0,6.0,78,-99.99,,,-99.99,,2013-02-27 02:16:00,
2013-02-26 21:24:00,34.0,28.0,-100.00,SSE,155,0.0,2.0,79,-99.99,,,-99.99,,2013-02-27 02:24:00,
2013-02-26 21:32:00,34.0,28.0,-100.00,SE,142,1.0,2.0,80,-99.99,,,-99.99,,2013-02-27 02:32:00,
2013-02-26 21:42:00,33.0,28.0,-100.00,SSE,152,0.0,2.0,80,-99.99,,,-99.99,,2013-02-27 02:42:00,
2013-02-26 21:52:00,33.0,28.0,-100.00,SE,130,1.0,4.0,80,-99.99,,,-99.99,,2013-02-27 02:52:00,
2013-02-26 22:02:00,33.0,28.0,-100.00,SSE,151,1.0,2.0,79,-99.99,,,-99.99,,2013-02-27 03:02:00,
2013-02-26 22:11:00,33.0,28.0,-100.00,South,179,2.0,4.0,79,-99.99,,,-99.99,,2013-02-27 03:11:00,
2013-02-26 22:22:00,33.0,28.0,-100.00,SSE,151,3.0,4.0,79,-99.99,,,-99.99,,2013-02-27 03:22:00,
2013-02-26 22:32:00,33.0,28.0,-100.00,SSE,151,3.0,4.0,79,-99.99,,,-99.99,,2013-02-27 03:32:00,
2013-02-26 22:42:00,33.0,28.0,-100.00,SE,133,2.0,4.0,79,-99.99,,,-99.99,,2013-02-27 03:42:00,
2013-02-26 22:52:00,33.0,28.0,-100.00,SE,145,3.0,6.0,79,-99.99,,,-99.99,,2013-02-27 03:52:00,
2013-02-26 23:01:00,33.0,28.0,-100.00,WSW,251,1.0,2.0,80,-99.99,,,-99.99,,2013-02-27 04:01:00,
2013-02-26 23:12:00,33.0,28.0,-100.00,SSW,196,1.0,4.0,81,-99.99,,,-99.99,,2013-02-27 04:12:00,
2013-02-26 23:22:00,33.0,28.0,-100.00,SW,233,1.0,2.0,81,-99.99,,,-99.99,,2013-02-27 04:22:00,
2013-02-26 23:32:00,33.0,28.0,-100.00,South,178,0.0,2.0,81,-99.99,,,-99.99,,2013-02-27 04:32:00,
2013-02-26 23:42:00,33.0,28.0,-100.00,SE,130,0.0,2.0,81,-99.99,,,-99.99,,2013-02-27 04:42:00,
2013-02-26 23:52:00,32.0,28.0,-100.00,SSE,166,0.0,2.0,83,-99.99,,,-99.99,,2013-02-27 04:52:00,